K4DFD-13 Weather Reports


Display with metric or nautical units.
time (UTC)temp
F
wind
direction
speed
MPH
gust
MPH
rain 1hr
in
rain 24hr
in
rain mn
in
humidity
%
barometer
mb
20260502194414 54 305 6.0 11.0 0.00 0.00 0.00 44 1013.0
20260502193914 54 48 6.0 11.0 0.00 0.00 0.00 44 1013.0
20260502193413 54 31 4.0 7.0 0.00 0.00 0.00 44 1013.1
20260502192912 54 305 4.0 11.0 0.00 0.00 0.00 45 1013.1
20260502192412 54 12 4.0 7.0 0.00 0.00 0.00 45 1013.1
20260502191912 55 50 4.0 6.0 0.00 0.00 0.00 46 1013.2
20260502191411 56 9 4.0 7.0 0.00 0.00 0.00 43 1013.0
20260502190911 57 338 4.0 8.0 0.00 0.00 0.00 44 1012.8
20260502190411 58 296 5.0 11.0 0.00 0.00 0.00 42 1013.0
20260502185901 57 31 4.0 9.0 0.00 0.00 0.00 44 1012.7
20260502185410 57 36 2.0 4.0 0.00 0.00 0.00 45 1012.7
20260502184910 57 349 5.0 10.0 0.00 0.00 0.00 43 1013.0
20260502184409 58 26 5.0 9.0 0.00 0.00 0.00 43 1012.7
20260502183909 57 44 6.0 11.0 0.00 0.00 0.00 42 1012.4
20260502183409 57 0 3.0 6.0 0.00 0.00 0.00 44 1012.8
20260502182908 57 13 3.0 6.0 0.00 0.00 0.00 43 1013.0
20260502182408 56 2 2.0 6.0 0.00 0.00 0.00 44 1012.5
20260502181908 56 86 3.0 5.0 0.00 0.00 0.00 44 1013.2
20260502181408 56 22 6.0 9.0 0.00 0.00 0.00 43 1012.9
20260502180907 56 42 7.0 9.0 0.00 0.00 0.00 43 1012.9
20260502180407 56 6 4.0 7.0 0.00 0.00 0.00 46 1012.9
20260502170402 53 77 2.0 4.0 0.00 0.00 0.00 48 1013.6
20260502163900 53 296 6.0 9.0 0.00 0.00 0.00 49 1014.0
20260502163400 53 310 3.0 9.0 0.00 0.00 0.00 50 1014.0
20260502162859 53 341 4.0 7.0 0.00 0.00 0.00 51 1014.1
20260502162359 52 56 2.0 4.0 0.00 0.00 0.00 50 1014.3
20260502161858 52 61 2.0 4.0 0.00 0.00 0.00 50 1014.4
20260502161348 52 25 4.0 7.0 0.00 0.00 0.00 50 1014.4
20260502160848 52 308 5.0 9.0 0.00 0.00 0.00 51 1014.6
20260502160348 52 32 5.0 10.0 0.00 0.00 0.00 50 1014.5
20260502151854 49 68 0.0 2.0 0.00 0.00 0.00 56 1014.6
20260502151354 49 24 3.0 6.0 0.00 0.00 0.00 59 1014.5
20260502150853 48 313 1.0 2.0 0.00 0.00 0.00 59 1015.0
20260502150353 47 294 4.0 6.0 0.00 0.00 0.00 58 1015.0
20260502130344 44 57 3.0 4.0 0.00 0.00 0.00 64 1015.0
20260502123342 44 315 3.0 6.0 0.00 0.00 0.00 66 1014.8
20260502122842 44 355 2.0 2.0 0.00 0.00 0.00 66 1014.9
20260502122331 43 336 1.0 2.0 0.00 0.00 0.00 65 1014.9
20260502121831 43 317 1.0 2.0 0.00 0.00 0.00 66 1014.9
20260502121341 43 28 1.0 2.0 0.00 0.00 0.00 66 1015.0
20260502120830 43 289 3.0 6.0 0.00 0.00 0.00 65 1015.1
20260502120330 43 288 1.0 2.0 0.00 0.00 0.00 66 1015.1
20260502115840 43 326 2.0 5.0 0.00 0.00 0.00 67 1015.0
20260502115339 43 301 3.0 6.0 0.00 0.00 0.00 67 1015.0
20260502114839 43 300 4.0 7.0 0.00 0.00 0.00 67 1015.1
20260502114328 43 2 2.0 2.0 0.00 0.00 0.00 67 1015.0
20260502113828 43 336 0.0 1.0 0.00 0.00 0.00 68 1014.9
20260502113338 43 277 2.0 3.0 0.00 0.00 0.00 66 1014.9
20260502112837 43 315 1.0 2.0 0.00 0.00 0.00 65 1014.8
20260502112337 43 20 2.0 2.0 0.00 0.00 0.00 65 1014.8
20260502111840 43 291 1.0 3.0 0.00 0.00 0.00 65 1014.6
20260502111327 43 314 2.0 6.0 0.00 0.00 0.00 64 1014.7
20260502110836 43 317 4.0 5.0 0.00 0.00 0.00 63 1014.5
20260502110336 43 309 4.0 8.0 0.00 0.00 0.00 63 1014.5
20260502105826 43 299 4.0 6.0 0.00 0.00 0.00 63 1014.6
20260502105335 43 295 2.0 2.0 0.00 0.00 0.00 62 1014.6
20260502104825 42 296 3.0 3.0 0.00 0.00 0.00 63 1014.6
20260502104324 43 324 2.0 3.0 0.00 0.00 0.00 64 1014.6
20260502103834 43 296 3.0 4.0 0.00 0.00 0.00 64 1014.5
20260502103323 43 37 1.0 2.0 0.00 0.00 0.00 63 1014.6
20260502102833 43 122 1.0 1.0 0.00 0.00 0.00 62 1014.7
20260502102333 43 348 1.0 3.0 0.00 0.00 0.00 61 1014.8
20260502101832 43 309 1.0 2.0 0.00 0.00 0.00 60 1014.8
20260502101332 44 53 1.0 2.0 0.00 0.00 0.00 59 1014.8
20260502100832 44 0 1.0 2.0 0.00 0.00 0.00 59 1014.9
20260502100331 44 323 2.0 2.0 0.00 0.00 0.00 59 1014.9
20260502091328 45 304 4.0 7.0 0.00 0.00 0.00 59 1014.8
20260502090827 45 308 1.0 2.0 0.00 0.00 0.00 59 1015.0
20260502090327 46 337 2.0 3.0 0.00 0.00 0.00 59 1014.9
20260502071318 48 28 2.0 4.0 0.00 0.00 0.00 75 1014.4
20260502070818 48 45 3.0 4.0 0.00 0.00 0.00 75 1014.4
20260502070308 48 66 2.0 3.0 0.00 0.00 0.00 74 1014.4
20260502065807 48 0 1.0 2.0 0.00 0.00 0.00 74 1014.5
20260502065317 48 309 1.0 7.0 0.00 0.00 0.00 74 1014.4
20260502064806 48 20 1.0 4.0 0.00 0.00 0.00 74 1014.6
20260502064316 48 297 2.0 4.0 0.00 0.00 0.00 74 1014.6
20260502063806 48 55 2.0 4.0 0.00 0.00 0.00 74 1014.6
20260502063315 48 329 3.0 8.0 0.00 0.00 0.00 73 1014.7
20260502062805 48 290 1.0 3.0 0.00 0.00 0.00 74 1014.6
20260502062315 48 324 1.0 2.0 0.00 0.00 0.00 74 1014.8
20260502061814 48 316 2.0 4.0 0.00 0.00 0.00 74 1014.9
20260502061314 48 326 1.0 3.0 0.00 0.00 0.00 74 1014.8
20260502060804 48 330 2.0 3.0 0.00 0.00 0.00 74 1014.9
20260502060313 48 332 1.0 4.0 0.00 0.00 0.00 73 1014.9
20260502055803 48 6 1.0 3.0 0.00 0.00 0.00 73 1014.9
20260502055305 48 330 1.0 2.0 0.00 0.00 0.00 73 1014.9
20260502054812 48 88 0.0 1.0 0.00 0.00 0.00 73 1015.0
20260502054312 48 12 2.0 3.0 0.00 0.00 0.00 73 1015.1
20260502053812 48 21 2.0 2.0 0.00 0.00 0.00 73 1015.1
20260502053311 48 316 0.0 1.0 0.00 0.00 0.00 73 1015.0
20260502052801 48 35 1.0 3.0 0.00 0.00 0.00 72 1014.8
20260502052311 49 15 4.0 6.0 0.00 0.00 0.00 71 1014.8
20260502051811 49 52 4.0 6.0 0.00 0.00 0.00 71 1014.7
20260502051300 49 21 2.0 3.0 0.00 0.00 0.00 72 1014.9
20260502050800 49 351 1.0 4.0 0.00 0.00 0.00 72 1014.8
20260502050309 49 46 4.0 6.0 0.00 0.00 0.00 72 1014.8
20260502045809 49 352 4.0 6.0 0.00 0.00 0.00 71 1014.8
20260502045258 49 43 3.0 5.0 0.00 0.00 0.00 71 1014.7
20260502044808 49 51 3.0 6.0 0.00 0.00 0.00 72 1014.8
20260502044308 49 14 1.0 2.0 0.00 0.00 0.00 71 1014.8
20260502043807 49 5 2.0 4.0 0.00 0.00 0.00 71 1014.8
20260502043307 50 49 1.0 2.0 0.00 0.00 0.00 71 1014.8
20260502042806 50 347 2.0 5.0 0.00 0.00 0.00 71 1014.9
20260502042306 50 33 2.0 3.0 0.00 0.00 0.00 71 1014.9
20260502041806 50 344 1.0 2.0 0.00 0.00 0.00 71 1014.8
20260502041305 51 40 2.0 4.0 0.00 0.00 0.00 71 1014.8
20260502040805 51 32 2.0 3.0 0.00 0.00 0.00 70 1014.7
20260502040254 51 36 2.0 4.0 0.00 0.00 0.00 71 1014.7
20260502035804 51 248 1.0 2.0 0.00 0.00 0.00 72 1014.7
20260502035306 51 42 2.0 4.0 0.00 0.00 0.00 72 1014.7
20260502034803 51 338 1.0 4.0 0.00 0.00 0.00 72 1014.7
20260502034303 51 343 0.0 2.0 0.00 0.00 0.00 73 1014.8
20260502033802 51 301 1.0 3.0 0.00 0.00 0.00 72 1014.8
20260502033302 51 60 3.0 4.0 0.00 0.00 0.00 72 1014.6
20260502032802 51 37 2.0 3.0 0.00 0.00 0.00 71 1014.7
20260502032305 51 49 1.0 2.0 0.00 0.00 0.00 71 1014.8
20260502031801 51 301 3.0 4.0 0.00 0.00 0.00 71 1014.7
20260502031301 51 304 4.0 8.0 0.00 0.00 0.00 71 1014.7
20260502030800 51 310 2.0 3.0 0.00 0.00 0.00 71 1014.6
20260502030300 51 3 2.0 3.0 0.00 0.00 0.00 72 1014.7
20260502025800 52 301 3.0 4.0 0.00 0.00 0.00 72 1014.7
20260502025259 52 307 1.0 3.0 0.00 0.00 0.00 72 1014.6
20260502024750 52 48 1.0 3.0 0.00 0.00 0.00 72 1014.6
20260502024250 52 306 2.0 5.0 0.00 0.00 0.00 71 1014.5
20260502023758 52 26 4.0 7.0 0.00 0.00 0.00 71 1014.5
20260502023249 52 323 2.0 4.0 0.00 0.00 0.00 71 1014.5
20260502022748 52 301 2.0 4.0 0.00 0.00 0.00 70 1014.5
20260502022258 53 29 1.0 4.0 0.00 0.00 0.00 69 1014.4
20260502021736 53 25 2.0 4.0 0.00 0.00 0.00 69 1014.3
20260502021236 53 340 3.0 5.0 0.00 0.00 0.00 68 1014.3
20260502020736 53 19 3.0 5.0 0.00 0.00 0.00 67 1013.9
20260502020235 54 355 2.0 5.0 0.00 0.00 0.00 67 1013.9
20260502015735 54 222 1.0 2.0 0.00 0.00 0.00 65 1013.7
20260502015234 54 23 5.0 8.0 0.00 0.00 0.00 64 1013.4
20260502014734 55 45 1.0 3.0 0.00 0.00 0.00 63 1013.2
20260502014234 55 28 4.0 7.0 0.00 0.00 0.00 62 1013.1
20260502013733 56 17 2.0 5.0 0.00 0.00 0.00 61 1013.0
20260502013233 56 350 2.0 5.0 0.00 0.00 0.00 59 1013.0
20260502012733 57 4 3.0 6.0 0.00 0.00 0.00 57 1012.9
20260502012232 58 31 2.0 4.0 0.00 0.00 0.00 54 1012.7
20260502011732 59 331 2.0 3.0 0.00 0.00 0.00 49 1012.7
20260502011232 59 313 1.0 2.0 0.00 0.00 0.00 48 1012.4
20260502010731 59 325 1.0 2.0 0.00 0.00 0.00 46 1012.2
20260502010231 59 248 1.0 2.0 0.00 0.00 0.00 47 1012.1
20260502005731 59 220 1.0 1.0 0.00 0.00 0.00 47 1012.1
20260502005230 59 240 0.0 2.0 0.00 0.00 0.00 50 1012.0
20260502004730 60 204 1.0 2.0 0.00 0.00 0.00 49 1011.9
20260502004230 60 306 1.0 2.0 0.00 0.00 0.00 46 1011.8
20260502003729 60 344 0.0 1.0 0.00 0.00 0.00 46 1011.7
20260502003229 61 297 1.0 2.0 0.00 0.00 0.00 43 1011.6
20260502002729 61 259 1.0 2.0 0.00 0.00 0.00 43 1011.5
20260502002228 61 246 1.0 2.0 0.00 0.00 0.00 43 1011.5
20260502001728 61 234 1.0 2.0 0.00 0.00 0.00 43 1011.4
20260502001228 62 220 1.0 2.0 0.00 0.00 0.00 42 1011.4
20260502000727 62 226 2.0 3.0 0.00 0.00 0.00 41 1011.3
20260502000227 62 270 2.0 2.0 0.00 0.00 0.00 41 1011.2
20260501235727 62 310 3.0 5.0 0.00 0.00 0.00 40 1011.2
20260501235226 63 294 2.0 3.0 0.00 0.00 0.00 40 1011.1
20260501234726 63 276 3.0 5.0 0.00 0.00 0.00 39 1011.0
20260501234226 63 267 4.0 6.0 0.00 0.00 0.00 39 1010.7
20260501233725 63 272 2.0 3.0 0.00 0.00 0.00 39 1010.7
20260501233225 64 246 0.0 1.0 0.00 0.00 0.00 39 1010.7
20260501232725 64 299 2.0 4.0 0.00 0.00 0.00 38 1010.7
20260501232224 64 282 3.0 5.0 0.00 0.00 0.00 37 1010.6
20260501231724 65 311 4.0 6.0 0.00 0.00 0.00 37 1010.6
20260501231223 65 286 2.0 5.0 0.00 0.00 0.00 37 1010.6
20260501230723 65 279 3.0 4.0 0.00 0.00 0.00 36 1010.6
20260501230223 66 275 4.0 6.0 0.00 0.00 0.00 35 1010.6
20260501225722 66 246 4.0 6.0 0.00 0.00 0.00 35 1010.5
20260501225222 66 260 4.0 5.0 0.00 0.00 0.00 35 1010.5
20260501224722 66 296 4.0 9.0 0.00 0.00 0.00 35 1010.5
20260501224221 66 262 4.0 7.0 0.00 0.00 0.00 36 1010.4
20260501223721 66 214 4.0 6.0 0.00 0.00 0.00 36 1010.5
20260501223221 67 234 5.0 8.0 0.00 0.00 0.00 36 1010.4
20260501222720 67 272 4.0 6.0 0.00 0.00 0.00 34 1010.5
20260501222220 67 255 3.0 6.0 0.00 0.00 0.00 35 1010.5
20260501221720 67 281 3.0 5.0 0.00 0.00 0.00 36 1010.6
20260501221219 67 249 6.0 8.0 0.00 0.00 0.00 36 1010.6
20260501220719 68 211 1.0 3.0 0.00 0.00 0.00 36 1010.5
20260501220219 67 226 3.0 5.0 0.00 0.00 0.00 36 1010.5
20260501215719 66 200 4.0 6.0 0.00 0.00 0.00 42 1010.6
20260501215218 65 217 5.0 7.0 0.00 0.00 0.00 47 1010.7
20260501214718 66 198 6.0 12.0 0.00 0.00 0.00 46 1010.6
20260501214218 65 186 2.0 5.0 0.00 0.00 0.00 47 1010.3
20260501213717 64 174 3.0 5.0 0.00 0.00 0.00 48 1010.6
20260501213217 64 186 3.0 8.0 0.00 0.00 0.00 48 1010.8
20260501212717 64 179 1.0 3.0 0.00 0.00 0.00 48 1010.7
20260501212217 65 179 6.0 8.0 0.00 0.00 0.00 46 1010.8
20260501211716 65 188 7.0 11.0 0.00 0.00 0.00 46 1010.6
20260501211216 65 175 2.0 4.0 0.00 0.00 0.00 45 1011.1
20260501210716 65 222 4.0 8.0 0.00 0.00 0.00 44 1011.0
20260501210215 65 179 2.0 4.0 0.00 0.00 0.00 46 1010.8
20260501205715 65 183 5.0 8.0 0.00 0.00 0.00 45 1011.2
20260501205214 65 190 3.0 5.0 0.00 0.00 0.00 45 1011.2
20260501204714 66 179 5.0 8.0 0.00 0.00 0.00 44 1011.1
20260501204214 65 191 3.0 5.0 0.00 0.00 0.00 46 1010.8
20260501203713 65 184 5.0 9.0 0.00 0.00 0.00 46 1011.4
20260501203213 66 186 5.0 8.0 0.00 0.00 0.00 45 1011.0
20260501202713 66 188 7.0 10.0 0.00 0.00 0.00 46 1011.1
20260501202213 66 194 5.0 9.0 0.00 0.00 0.00 44 1011.1
20260501201712 67 201 6.0 9.0 0.00 0.00 0.00 44 1011.1
20260501201212 66 177 4.0 5.0 0.00 0.00 0.00 45 1011.1
20260501200712 66 205 7.0 13.0 0.00 0.00 0.00 45 1011.2